Le nostre stazioni meteo in Italia

Pubblicità
Il mio iltempo24.it
Passo Dei Giovi, Italia (16119): Temperatura & dewpoint: 12.03.2019 20:00:00 - 18.03.2019 20:00:00 (CET)Passo Dei Giovi, Italia (16119): velocità del vento: 12.03.2019 20:00:00 - 18.03.2019 20:00:00 (CET)Passo Dei Giovi, Italia (16119): direzione del vento: 12.03.2019 20:00:00 - 18.03.2019 20:00:00 (CET)Passo Dei Giovi, Italia (16119): reduced air pressure: 12.03.2019 20:00:00 - 18.03.2019 20:00:00 (CET)Passo Dei Giovi, Italia (16119): visibility: 12.03.2019 20:00:00 - 18.03.2019 20:00:00 (CET)
Data & Tempo tt [°C] td [°C] ff [km/h] ff [kn] dd ppp [hPa] vv [km]
18.03.2019 20:00:00 - - - - - - -
18.03.2019 19:00:00 10,2 -17,0 26 14 N 1014,4 20
18.03.2019 18:00:00 - - - - - - -
18.03.2019 17:00:00 12,0 -19,0 - - - - 10
18.03.2019 16:00:00 12,0 -18,7 31 17 N 1012,5 20
18.03.2019 15:00:00 - - - - - - -
18.03.2019 14:00:00 - - - - - - -
18.03.2019 13:00:00 11,0 -13,9 22 12 N 1013,3 20
18.03.2019 12:00:00 - - - - - - -
18.03.2019 11:00:00 - - - - - - -
18.03.2019 10:00:00 8,8 -12,9 26 14 N 1012,8 20
18.03.2019 09:00:00 - - - - - - -
18.03.2019 08:00:00 - - - - - - -
18.03.2019 07:00:00 7,0 -0,9 18 10 N 1011,1 12
18.03.2019 06:00:00 - - - - - - -
18.03.2019 05:00:00 - - - - - - -
18.03.2019 04:00:00 - - - - - - -
18.03.2019 03:00:00 - - - - - - -
18.03.2019 02:00:00 - - - - - - -
18.03.2019 01:00:00 - - - - - - -
18.03.2019 00:00:00 - - - - - - -
17.03.2019 23:00:00 - - - - - - -
17.03.2019 22:00:00 - - - - - - -
17.03.2019 21:00:00 - - - - - - -
17.03.2019 20:00:00 - - - - - - -
17.03.2019 19:00:00 - - - - - - -
17.03.2019 18:00:00 - - - - - - -
17.03.2019 17:00:00 - - - - - - -
17.03.2019 16:00:00 - - - - - - -
17.03.2019 15:00:00 - - - - - - -
17.03.2019 14:00:00 - - - - - - -
17.03.2019 13:00:00 - - - - - - -
17.03.2019 12:00:00 - - - - - - -
17.03.2019 11:00:00 - - - - - - -
17.03.2019 10:00:00 - - - - - - -
17.03.2019 09:00:00 - - - - - - -
17.03.2019 08:00:00 - - - - - - -
17.03.2019 07:00:00 - - - - - - -
17.03.2019 06:00:00 - - - - - - -
17.03.2019 05:00:00 - - - - - - -
17.03.2019 04:00:00 - - - - - - -
17.03.2019 03:00:00 - - - - - - -
17.03.2019 02:00:00 - - - - - - -
17.03.2019 01:00:00 - - - - - - -
17.03.2019 00:00:00 - - - - - - -
16.03.2019 23:00:00 - - - - - - -
16.03.2019 22:00:00 - - - - - - -
16.03.2019 21:00:00 - - - - - - -
16.03.2019 20:00:00 - - - - - - -
16.03.2019 19:00:00 9,2 7,8 31 17 S 1016,9 10
16.03.2019 18:00:00 - - - - - - -
16.03.2019 17:00:00 - - - - - - -
16.03.2019 16:00:00 11,8 7,7 26 14 S 1016,4 12
16.03.2019 15:00:00 - - - - - - -
16.03.2019 14:00:00 - - - - - - -
16.03.2019 13:00:00 11,8 8,3 28 15 S 1017,3 12
16.03.2019 12:00:00 - - - - - - -
16.03.2019 11:00:00 - - - - - - -
16.03.2019 10:00:00 10,0 7,4 18 10 S 1017,6 12
16.03.2019 09:00:00 - - - - - - -
16.03.2019 08:00:00 - - - - - - -
16.03.2019 07:00:00 8,4 7,5 16 9 S 1016,4 10
16.03.2019 06:00:00 - - - - - - -
16.03.2019 05:00:00 - - - - - - -
16.03.2019 04:00:00 - - - - - - -
16.03.2019 03:00:00 - - - - - - -
16.03.2019 02:00:00 - - - - - - -
16.03.2019 01:00:00 - - - - - - -
16.03.2019 00:00:00 - - - - - - -
15.03.2019 23:00:00 - - - - - - -
15.03.2019 22:00:00 - - - - - - -
15.03.2019 21:00:00 - - - - - - -
15.03.2019 20:00:00 - - - - - - -
15.03.2019 19:00:00 9,6 9,0 15 8 S 1014,7 10
15.03.2019 18:00:00 - - - - - - -
15.03.2019 17:00:00 - - - - - - -
15.03.2019 16:00:00 11,4 7,9 18 10 S 1013,6 12
15.03.2019 15:00:00 - - - - - - -
15.03.2019 14:00:00 - - - - - - -
15.03.2019 13:00:00 13,0 4,9 22 12 S 1013,0 15
15.03.2019 12:00:00 - - - - - - -
15.03.2019 11:00:00 - - - - - - -
15.03.2019 10:00:00 10,2 4,6 9 5 S 1012,8 15
15.03.2019 09:00:00 - - - - - - -
15.03.2019 08:00:00 - - - - - - -
15.03.2019 07:00:00 0,4 -1,4 9 5 N 1013,8 15
15.03.2019 06:00:00 - - - - - - -
15.03.2019 05:00:00 - - - - - - -
15.03.2019 04:00:00 - - - - - - -
15.03.2019 03:00:00 - - - - - - -
15.03.2019 02:00:00 - - - - - - -
15.03.2019 01:00:00 - - - - - - -
15.03.2019 00:00:00 - - - - - - -
14.03.2019 23:00:00 - - - - - - -
14.03.2019 22:00:00 - - - - - - -
14.03.2019 21:00:00 - - - - - - -
14.03.2019 20:00:00 - - - - - - -
14.03.2019 19:00:00 8,0 6,0 22 12 S 1011,1 15
14.03.2019 18:00:00 - - - - - - -
14.03.2019 17:00:00 - - - - - - -
14.03.2019 16:00:00 11,8 -0,4 11 6 S 1011,5 15
14.03.2019 15:00:00 - - - - - - -
14.03.2019 14:00:00 - - - - - - -
14.03.2019 13:00:00 13,6 -11,0 11 6 S 1013,8 15
14.03.2019 12:00:00 - - - - - - -
14.03.2019 11:00:00 - - - - - - -
14.03.2019 10:00:00 6,6 -4,8 5 3 N 1016,3 15
14.03.2019 09:00:00 - - - - - - -
14.03.2019 08:00:00 - - - - - - -
14.03.2019 07:00:00 -0,6 -3,0 9 5 N 1017,6 15
14.03.2019 06:00:00 - - - - - - -
14.03.2019 05:00:00 - - - - - - -
14.03.2019 04:00:00 - - - - - - -
14.03.2019 03:00:00 - - - - - - -
14.03.2019 02:00:00 - - - - - - -
14.03.2019 01:00:00 - - - - - - -
14.03.2019 00:00:00 - - - - - - -
13.03.2019 23:00:00 - - - - - - -
13.03.2019 22:00:00 - - - - - - -
13.03.2019 21:00:00 - - - - - - -
13.03.2019 20:00:00 - - - - - - -
13.03.2019 19:00:00 9,8 -9,3 15 8 N 1010,7 15
13.03.2019 18:00:00 - - - - - - -
13.03.2019 17:00:00 - - - - - - -
13.03.2019 16:00:00 11,8 -7,6 24 13 N 1009,3 15
13.03.2019 15:00:00 - - - - - - -
13.03.2019 14:00:00 - - - - - - -
13.03.2019 13:00:00 10,4 -3,0 16 9 N 1011,8 15
13.03.2019 12:00:00 - - - - - - -
13.03.2019 11:00:00 - - - - - - -
13.03.2019 10:00:00 7,8 3,5 15 8 N 1013,8 12
13.03.2019 09:00:00 - - - - - - -
13.03.2019 08:00:00 - - - - - - -
13.03.2019 07:00:00 7,4 6,2 18 10 S 1014,2 12
13.03.2019 06:00:00 - - - - - - -
13.03.2019 05:00:00 - - - - - - -
13.03.2019 04:00:00 - - - - - - -
13.03.2019 03:00:00 - - - - - - -
13.03.2019 02:00:00 - - - - - - -
13.03.2019 01:00:00 - - - - - - -
13.03.2019 00:00:00 - - - - - - -
12.03.2019 23:00:00 - - - - - - -
12.03.2019 22:00:00 - - - - - - -
12.03.2019 21:00:00 - - - - - - -
12.03.2019 20:00:00 - - - - - - -

tt = Temperatura
td = dewpoint
ff = velocità del vento
dd = direzione del vento
ppp = reduced air pressure
vv = visibility

Stazioni seguenti

WeatherPro
AMSI
MeteoEarth